Ludington, MI

9:43 AM EDT on October 21, 2019 (GMT -0400)
Mason County

Weather History for KLDM - August, 2019

Change the Weather History Date:

Tuesday, August 27, 2019

  Actual Average Record
Temperature  
Mean Temperature 68 °F -  
Max Temperature 74 °F 77 °F 90 °F (1948)
Min Temperature 61 °F 58 °F 38 °F (1968)
Cooling Degree Days 3    
Growing Degree Days 18 (Base 50)    
Moisture  
Dew Point 62 °F    
Average Humidity 79    
Maximum Humidity 98    
Minimum Humidity 61    
Precipitation  
Precipitation 0.01 in - - ()
Sea Level Pressure  
Sea Level Pressure 29.73 in    
Wind  
Wind Speed 9 mph (WSW)    
Max Wind Speed 16 mph    
Max Gust Speed 22 mph    
Visibility 10 miles    
Events Rain    
Averages and records for this station are not official NWS values.
T = Trace of Precipitation, MM = Missing Value Source: NWS Daily Summary

Daily Weather History Graph

Daily Weather History Graph

Search for Another Location

Airport or City:

Astronomy

Aug. 27, 2019 Rise Set
Actual Time 7:03 AM EDT 8:30 PM EDT
Civil Twilight 6:32 AM EDT 9:00 PM EDT
Nautical Twilight 5:56 AM EDT 9:36 PM EDT
Astronomical Twilight 5:17 AM EDT 10:15 PM EDT
Moon 3:19 AM EDT (8/27) 6:57 PM EDT (8/27)
Length of Visible Light 14h 27m
Length of Day
13h 27m
Waning Crescent, 11% of the Moon is Illuminated
Aug 27
Waning Crescent
Aug 30
New
Sep 5
First Quarter
Sep 14
Full
Sep 21
Last Quarter

Hourly Weather History & Observations

Time (EDT) Temp. Dew Point Humidity Pressure Visibility Wind Dir Wind Speed Gust Speed Precip Events Conditions
12:15 AM 67.6 °F 67.1 °F 98% 29.62 in 10.0 mi SSE 6.9 mph - N/A Rain Rain
12:35 AM 68.4 °F 67.5 °F 97% 29.62 in 10.0 mi South 8.1 mph 16.1 mph 0.01 in Rain Light Rain
12:58 AM 69.4 °F 68.7 °F 98% 29.62 in 10.0 mi SW 12.7 mph 18.4 mph 0.01 in   Overcast
1:16 AM 68.9 °F 68.2 °F 98% 29.63 in 10.0 mi WSW 12.7 mph 19.6 mph N/A   Overcast
1:35 AM 68.2 °F 67.5 °F 98% 29.63 in 10.0 mi WSW 12.7 mph 19.6 mph N/A   Overcast
1:55 AM 68.0 °F 66.9 °F 96% 29.63 in 10.0 mi WSW 10.4 mph 16.1 mph N/A   Overcast
2:19 AM 67.8 °F 66.4 °F 95% 29.64 in 10.0 mi West 12.7 mph 21.9 mph N/A   Overcast
2:37 AM 67.5 °F 65.7 °F 94% 29.65 in 10.0 mi West 6.9 mph - N/A   Overcast
2:55 AM 67.3 °F 65.3 °F 93% 29.65 in 10.0 mi West 6.9 mph - N/A   Overcast
2:56 AM 67.3 °F 65.3 °F 93% 29.65 in 10.0 mi West 9.2 mph - N/A   Overcast
3:35 AM 67.1 °F 65.3 °F 94% 29.65 in 10.0 mi West 3.5 mph - N/A   Overcast
3:58 AM 67.5 °F 65.7 °F 94% 29.66 in 10.0 mi WSW 6.9 mph - N/A   Overcast
4:16 AM 67.6 °F 64.4 °F 89% 29.66 in 10.0 mi West 8.1 mph 16.1 mph N/A   Overcast
4:35 AM 67.3 °F 64.4 °F 90% 29.66 in 10.0 mi WSW 5.8 mph - N/A   Overcast
4:55 AM 67.3 °F 64.0 °F 89% 29.67 in 10.0 mi West 5.8 mph - N/A   Overcast
5:19 AM 67.3 °F 64.0 °F 89% 29.67 in 10.0 mi West 6.9 mph - N/A   Overcast
5:37 AM 67.1 °F 64.4 °F 91% 29.68 in 10.0 mi West 10.4 mph - N/A   Overcast
5:55 AM 67.1 °F 64.6 °F 92% 29.68 in 10.0 mi WSW 9.2 mph - N/A   Overcast
5:56 AM 67.1 °F 64.6 °F 92% 29.68 in 10.0 mi WSW 9.2 mph - N/A   Overcast
6:15 AM 67.1 °F 64.8 °F 92% 29.69 in 10.0 mi WSW 8.1 mph - N/A   Overcast
6:35 AM 67.1 °F 64.0 °F 90% 29.69 in 10.0 mi WSW 8.1 mph - N/A   Overcast
6:58 AM 66.6 °F 63.0 °F 88% 29.70 in 10.0 mi West 9.2 mph - N/A   Overcast
7:16 AM 65.8 °F 62.4 °F 89% 29.70 in 10.0 mi West 6.9 mph - N/A   Mostly Cloudy
7:35 AM 65.7 °F 61.9 °F 88% 29.70 in 10.0 mi West 5.8 mph - N/A   Mostly Cloudy
7:36 AM 65.7 °F 61.9 °F 88% 29.70 in 10.0 mi West 6.9 mph - N/A   Mostly Cloudy
7:55 AM 66.2 °F 61.9 °F 86% 29.70 in 10.0 mi West 6.9 mph - N/A   Mostly Cloudy
7:56 AM 66.2 °F 61.9 °F 86% 29.70 in 10.0 mi WSW 8.1 mph - N/A   Mostly Cloudy
8:19 AM 66.9 °F 62.2 °F 85% 29.71 in 10.0 mi WSW 5.8 mph - N/A   Mostly Cloudy
8:37 AM 66.9 °F 63.0 °F 87% 29.72 in 10.0 mi WSW 8.1 mph - N/A   Scattered Clouds
8:55 AM 67.5 °F 63.0 °F 85% 29.72 in 10.0 mi WSW 9.2 mph - N/A   Scattered Clouds
9:15 AM 68.7 °F 63.0 °F 82% 29.73 in 10.0 mi WSW 10.4 mph - N/A   Mostly Cloudy
9:16 AM 68.7 °F 63.0 °F 82% 29.73 in 10.0 mi WSW 11.5 mph - N/A   Mostly Cloudy
9:35 AM 66.7 °F 61.9 °F 84% 29.73 in 10.0 mi WSW 9.2 mph - N/A   Overcast
9:39 AM 66.7 °F 62.4 °F 86% 29.73 in 10.0 mi WSW 8.1 mph - N/A   Overcast
9:58 AM 67.3 °F 62.2 °F 84% 29.74 in 10.0 mi WSW 8.1 mph 16.1 mph N/A   Overcast
10:16 AM 68.0 °F 62.6 °F 83% 29.74 in 10.0 mi SW 10.4 mph - N/A   Overcast
10:35 AM 67.6 °F 62.2 °F 83% 29.75 in 10.0 mi WSW 11.5 mph 17.3 mph N/A   Overcast
10:36 AM 67.5 °F 62.1 °F 83% 29.75 in 10.0 mi WSW 10.4 mph 17.3 mph N/A   Overcast
10:59 AM 68.9 °F 62.1 °F 79% 29.75 in 10.0 mi South 6.9 mph - N/A   Overcast
11:20 AM - - N/A% - - North - - N/A   Unknown
11:38 AM - - N/A% - - North - - N/A   Unknown
11:56 AM - - N/A% - - North - - N/A   Unknown
12:15 PM 68.5 °F 60.6 °F 76% 29.76 in 10.0 mi WSW 9.2 mph - N/A   Overcast
12:35 PM 68.2 °F 61.0 °F 78% 29.77 in 10.0 mi West 6.9 mph - N/A   Overcast
12:36 PM 68.4 °F 61.2 °F 78% 29.77 in 10.0 mi West 8.1 mph - N/A   Overcast
12:59 PM 69.1 °F 61.2 °F 76% 29.76 in 10.0 mi WSW 10.4 mph - N/A   Overcast
1:17 PM 70.7 °F 61.9 °F 74% 29.77 in 10.0 mi WSW 12.7 mph - N/A   Mostly Cloudy
1:35 PM 70.3 °F 62.1 °F 75% 29.76 in 10.0 mi WSW 11.5 mph - N/A   Scattered Clouds
1:36 PM 70.2 °F 61.7 °F 74% 29.76 in 10.0 mi SW 12.7 mph - N/A   Scattered Clouds
1:55 PM 70.3 °F 61.7 °F 74% 29.76 in 10.0 mi WSW 12.7 mph - N/A   Scattered Clouds
2:15 PM 70.7 °F 61.7 °F 73% 29.77 in 10.0 mi SW 12.7 mph - N/A   Scattered Clouds
2:38 PM 71.4 °F 61.9 °F 72% 29.77 in 10.0 mi SW 12.7 mph 17.3 mph N/A   Scattered Clouds
2:56 PM 70.9 °F 61.5 °F 72% 29.77 in 10.0 mi WSW 11.5 mph 17.3 mph N/A   Scattered Clouds
3:15 PM 71.6 °F 61.5 °F 70% 29.77 in 10.0 mi SSW 12.7 mph - N/A   Scattered Clouds
3:35 PM 71.8 °F 61.2 °F 69% 29.77 in 10.0 mi SW 13.8 mph 18.4 mph N/A   Clear
3:59 PM 72.5 °F 62.1 °F 70% 29.76 in 10.0 mi SW 13.8 mph - N/A   Clear
4:17 PM 73.8 °F 61.7 °F 66% 29.76 in 10.0 mi SW 13.8 mph 17.3 mph N/A   Clear
4:36 PM 72.7 °F 59.9 °F 64% 29.76 in 10.0 mi SW 16.1 mph 20.7 mph N/A   Clear
4:55 PM 73.2 °F 61.2 °F 66% 29.77 in 10.0 mi SSW 13.8 mph 18.4 mph N/A   Clear
5:15 PM 73.4 °F 60.3 °F 63% 29.76 in 10.0 mi SW 13.8 mph 21.9 mph N/A   Clear
5:37 PM 73.9 °F 60.3 °F 62% 29.76 in 10.0 mi SSW 11.5 mph 21.9 mph N/A   Clear
5:56 PM 74.1 °F 60.1 °F 61% 29.76 in 10.0 mi SSW 12.7 mph - N/A   Mostly Cloudy
6:15 PM 72.0 °F 58.5 °F 62% 29.77 in 10.0 mi SSW 13.8 mph 17.3 mph N/A   Mostly Cloudy
6:16 PM 72.0 °F 58.5 °F 62% 29.76 in 10.0 mi SSW 12.7 mph 17.3 mph N/A   Mostly Cloudy
6:35 PM 72.0 °F 57.7 °F 61% 29.76 in 10.0 mi SSW 12.7 mph 17.3 mph N/A   Mostly Cloudy
6:36 PM 71.8 °F 57.6 °F 61% 29.76 in 10.0 mi SSW 11.5 mph 17.3 mph N/A   Mostly Cloudy
6:59 PM 72.1 °F 58.3 °F 62% 29.75 in 10.0 mi SSW 15.0 mph 20.7 mph N/A   Scattered Clouds
7:17 PM 70.9 °F 59.4 °F 67% 29.75 in 10.0 mi SSW 11.5 mph 19.6 mph N/A   Clear
7:35 PM 71.2 °F 60.6 °F 69% 29.74 in 10.0 mi SSW 11.5 mph 18.4 mph N/A   Scattered Clouds
7:55 PM 70.9 °F 61.2 °F 71% 29.75 in 10.0 mi SSW 9.2 mph 18.4 mph N/A   Scattered Clouds
7:56 PM 70.7 °F 61.3 °F 72% 29.75 in 10.0 mi SSW 10.4 mph 18.4 mph N/A   Scattered Clouds
8:15 PM 70.7 °F 61.7 °F 73% 29.75 in 10.0 mi SSW 13.8 mph - N/A   Scattered Clouds
8:19 PM 70.9 °F 61.5 °F 72% 29.75 in 10.0 mi SW 15.0 mph - N/A   Scattered Clouds
8:38 PM 70.2 °F 63.7 °F 80% 29.77 in 10.0 mi SW 10.4 mph 20.7 mph N/A   Mostly Cloudy
8:56 PM 69.6 °F 62.8 °F 79% 29.77 in 10.0 mi SW 11.5 mph 18.4 mph N/A   Scattered Clouds
9:15 PM 69.8 °F 61.0 °F 73% 29.77 in 10.0 mi SW 9.2 mph - N/A   Clear
9:35 PM 69.4 °F 61.0 °F 74% 29.78 in 10.0 mi WSW 9.2 mph - N/A   Mostly Cloudy
9:36 PM 69.3 °F 61.0 °F 75% 29.78 in 10.0 mi WSW 8.1 mph - N/A   Mostly Cloudy
9:59 PM 68.2 °F 61.7 °F 80% 29.79 in 10.0 mi WSW 5.8 mph - N/A   Scattered Clouds
10:17 PM 68.5 °F 60.6 °F 76% 29.79 in 10.0 mi WSW 6.9 mph - N/A   Clear
10:36 PM 68.0 °F 60.6 °F 77% 29.79 in 10.0 mi WSW 9.2 mph - N/A   Clear
10:55 PM 68.2 °F 56.8 °F 67% 29.80 in 10.0 mi NW 8.1 mph - N/A   Clear
11:15 PM 65.1 °F 52.3 °F 63% 29.81 in 10.0 mi NW 13.8 mph 19.6 mph N/A   Clear
11:38 PM 62.1 °F 48.4 °F 61% 29.81 in 10.0 mi NNW 3.5 mph - N/A   Clear
11:56 PM 61.9 °F 49.1 °F 63% 29.81 in 10.0 mi Calm Calm - N/A   Clear